User: anonymous   Login
Location: Fremont
(37.5480°N, 121.9880°W)
Time: 09:31:30
(UTC-07:00)
Language:

Cosmos 1844 Rocket - Orbit

View from above orbital plane
View from above orbital plane
View from above satellite
View from above satellite

Ground track
Ground track

The orbit data is extracted from the following two-line orbital elements,

1 17974U 87041B   18140.86377076 +.00000183 +00000-0 +11431-3 0  9991
2 17974 071.0083 278.3861 0015915 242.0889 230.0496 14.17242181604328
Epoch (UTC): 20 May 2018 20:43:49
Eccentricity: 0.0015915
inclination: 71.0083°
perigee height: 823 km
apogee height: 846 km
right ascension of ascending node: 278.3861°
argument of perigee: 242.0889°
revolutions per day: 14.17242181
mean anomaly at epoch: 230.0496°
orbit number at epoch: 60432

The dashed part of the orbit path shows where the satellite is in the earth's shadow,  

DLR